This is the latest recevied weather packets stored in our database for station/object SP1BMW-13. If no packets are shown the sender has not sent any weather packets the latest 1 day(s).
| Time | Temp. | Humidity | Pressure | Rain* | Wind** | Luminosity | Snow |
|---|---|---|---|---|---|---|---|
| 1778035729 | 10° C | 94% | 1006.2 hPa | 0.25 mm | 0 m/s | 0 W/m² | - |
| 1778035669 | 10° C | 94% | 1006.1 hPa | 0.25 mm | 0 m/s | 0 W/m² | - |
| 1778035612 | 10° C | 94% | 1006.2 hPa | 0.25 mm | 0.45 m/s, 5° | 0 W/m² | - |
| 1778035549 | 10° C | 94% | 1006.2 hPa | 0.25 mm | 0 m/s | 0 W/m² | - |
| 1778035489 | 10° C | 94% | 1006 hPa | 0.25 mm | 0.89 m/s, 72° | 0 W/m² | - |
| 1778035429 | 10° C | 94% | 1006.1 hPa | 0.25 mm | 0.89 m/s, 43° | 0 W/m² | - |
| 1778035309 | 10° C | 94% | 1006.1 hPa | 0.25 mm | 0 m/s | 0 W/m² | - |
| 1778035249 | 10° C | 94% | 1006.4 hPa | 0.25 mm | 0.45 m/s, 13° | 0 W/m² | - |
| 1778035190 | 10° C | 94% | 1006.2 hPa | 0.25 mm | 0.45 m/s, 51° | 0 W/m² | - |
| 1778035069 | 10° C | 94% | 1006.1 hPa | 0.25 mm | 0 m/s | 0 W/m² | - |
| 1778035009 | 10° C | 94% | 1006.3 hPa | 0.25 mm | 0.89 m/s, 245° | 0 W/m² | - |
| 1778034949 | 10° C | 94% | 1006.2 hPa | 0.25 mm | 0.45 m/s, 55° | 0 W/m² | - |
| 1778034889 | 10° C | 94% | 1006.1 hPa | 0.25 mm | 0.45 m/s, 47° | 0 W/m² | - |
| 1778034772 | 10° C | 94% | 1006.2 hPa | 0.25 mm | 0.45 m/s, 336° | 0 W/m² | - |
| 1778034709 | 10° C | 94% | 1006.3 hPa | 0.25 mm | 0.89 m/s, 47° | 0 W/m² | - |
| 1778034650 | 10° C | 94% | 1006.2 hPa | 0.25 mm | 2.24 m/s, 284° | 0 W/m² | - |
| 1778034589 | 10° C | 94% | 1006.3 hPa | 0 mm | 0.45 m/s, 339° | 0 W/m² | - |
| 1778034529 | 10° C | 94% | 1006.3 hPa | 0 mm | 0 m/s | 0 W/m² | - |
| 1778034469 | 10° C | 94% | 1006.2 hPa | 0 mm | 0 m/s | 0 W/m² | - |
| 1778034412 | 10° C | 94% | 1006.5 hPa | 0 mm | 0 m/s | 0 W/m² | - |
| 1778034349 | 10° C | 94% | 1006.3 hPa | 0 mm | 1.34 m/s, 40° | 0 W/m² | - |
| 1778034289 | 10° C | 94% | 1006.3 hPa | 0 mm | 2.24 m/s, 345° | 0 W/m² | - |
| 1778034170 | 10° C | 94% | 1006.2 hPa | 0 mm | 0.89 m/s, 32° | 0 W/m² | - |
| 1778034109 | 10° C | 94% | 1006.5 hPa | 0 mm | 0 m/s | 0 W/m² | - |
| 1778034049 | 10° C | 94% | 1006.5 hPa | 0 mm | 0 m/s | 0 W/m² | - |
* Rain latest hour (hover to see other rain measurements)
** Current wind speed in m/s (hover to see current wind gust speed)